• Currently

    Reported at Minneapolis, Minneapolis-St. Paul International Airport, MN
    3:53 AM CST SUN MAR 26 2017
  • 37°F3°C
  • Drizzle
    Drizzle
  • Feels Like:33°F0°CDew Point:34°F1°CHumidity:87% Winds:E 7 mph 11 kph
    Pressure:29.94 in1014 hPaVisibility:7.00 miles11263.00 meters
Time Weather Temp Dew Point
Humidity Winds Visibility Pressure Precipitation
1 hr 24 hr
Thursday, March 23
23:53 23:53 Cloudy Cloudy 37°F3°C 15°F-9°C 41% SE 13 mphSE 20 kph 10.0 miles16.1 km 30.27 in1025 hPa 0.00 in0.00 mm --
22:53 22:53 Cloudy Cloudy 38°F3°C 14°F-10°C 37% SE 17 mphSE 28 kph 10.0 miles16.1 km 30.3 in1026 hPa 0.00 in0.00 mm --
21:53 21:53 Cloudy Cloudy 37°F3°C 13°F-11°C 37% SE 14 mphSE 22 kph 10.0 miles16.1 km 30.3 in1026 hPa 0.00 in0.00 mm --
20:53 20:53 Cloudy Cloudy 37°F3°C 12°F-11°C 36% SE 16 mphSE 26 kph 10.0 miles16.1 km 30.3 in1026 hPa 0.00 in0.00 mm --
19:53 19:53 Cloudy Cloudy 38°F3°C 13°F-11°C 36% SSE 13 mphSSE 20 kph 10.0 miles16.1 km 30.33 in1027 hPa 0.00 in0.00 mm --
18:53 18:53 Cloudy Cloudy 38°F3°C 12°F-11°C 34% SSE 10 mphSSE 17 kph 10.0 miles16.1 km 30.36 in1028 hPa 0.00 in0.00 mm --
17:53 17:53 Mostly Cloudy Mostly Cloudy 39°F4°C 12°F-11°C 33% SE 14 mphSE 22 kph 10.0 miles16.1 km 30.36 in1028 hPa 0.00 in0.00 mm --
16:53 16:53 Mostly Cloudy Mostly Cloudy 39°F4°C 12°F-11°C 33% SSE 15 mphSSE 24 kph 10.0 miles16.1 km 30.39 in1029 hPa 0.00 in0.00 mm --
15:53 15:53 Cloudy Cloudy 38°F3°C 11°F-12°C 33% SSE 14 mphSSE 22 kph 10.0 miles16.1 km 30.42 in1030 hPa 0.00 in0.00 mm --
14:53 14:53 Mostly Cloudy Mostly Cloudy 37°F3°C 9°F-13°C 31% S 13 mphS 20 kph 10.0 miles16.1 km 30.45 in1031 hPa 0.00 in0.00 mm --
13:53 13:53 Partly Cloudy Partly Cloudy 36°F2°C 7°F-14°C 30% SSE 8 mphSSE 13 kph 10.0 miles16.1 km 30.5 in1033 hPa 0.00 in0.00 mm --
12:53 12:53 Partly Cloudy Partly Cloudy 35°F2°C 8°F-13°C 32% SSE 10 mphSSE 17 kph 10.0 miles16.1 km 30.5 in1033 hPa 0.00 in0.00 mm --
11:53 11:53 Partly Cloudy Partly Cloudy 32°F0°C 7°F-14°C 35% SE 12 mphSE 19 kph 10.0 miles16.1 km 30.53 in1034 hPa 0.00 in0.00 mm --
10:53 10:53 Mostly Sunny Mostly Sunny 31°F-1°C 7°F-14°C 36% SSE 14 mphSSE 22 kph 10.0 miles16.1 km 30.56 in1035 hPa 0.00 in0.00 mm --
09:53 09:53 Mostly Sunny Mostly Sunny 28°F-2°C 6°F-14°C 39% SE 16 mphSE 26 kph 10.0 miles16.1 km 30.56 in1035 hPa 0.00 in0.00 mm --
08:53 08:53 Mostly Sunny Mostly Sunny 25°F-4°C 8°F-13°C 48% SE 9 mphSE 15 kph 10.0 miles16.1 km 30.56 in1035 hPa 0.00 in0.00 mm --
07:53 07:53 Sunny Sunny 22°F-6°C 7°F-14°C 52% SE 7 mphSE 11 kph 10.0 miles16.1 km 30.56 in1035 hPa 0.00 in0.00 mm --
06:53 06:53 Clear Clear 22°F-6°C 6°F-14°C 50% ESE 9 mphESE 15 kph 10.0 miles16.1 km 30.56 in1035 hPa 0.00 in0.00 mm --
05:53 05:53 Clear Clear 22°F-6°C 5°F-15°C 48% E 8 mphE 13 kph 10.0 miles16.1 km 30.53 in1034 hPa 0.00 in0.00 mm --
04:53 04:53 Clear Clear 23°F-5°C 4°F-16°C 44% ENE 8 mphENE 13 kph 10.0 miles16.1 km 30.53 in1034 hPa 0.00 in0.00 mm --
03:53 03:53 Clear Clear 23°F-5°C 4°F-16°C 44% ENE 7 mphENE 11 kph 10.0 miles16.1 km 30.53 in1034 hPa 0.00 in0.00 mm --
02:53 02:53 Clear Clear 23°F-5°C 4°F-16°C 44% ENE 6 mphENE 9 kph 10.0 miles16.1 km 30.56 in1035 hPa 0.00 in0.00 mm --
01:53 01:53 Clear Clear 25°F-4°C 4°F-16°C 40% NE 8 mphNE 13 kph 10.0 miles16.1 km 30.56 in1035 hPa 0.00 in0.00 mm --
00:53 00:53 Clear Clear 25°F-4°C 5°F-15°C 42% NE 8 mphNE 13 kph 10.0 miles16.1 km 30.56 in1035 hPa 0.00 in0.00 mm --